Location: Unspecified
(0.0000°N, 0.0000°E)
Time: 09:58:30
(UTC+00:00)

Vanguard 3 - Pass Details

Date: 09 December 2017
Orbit: 508 x 3264 km, 33.4° (Epoch: 17 January)

Event Time Altitude Azimuth Distance (km) Brightness Sun altitude
Rises 21:50:15 0° 299° (WNW) 4,656 11.2 -52.5°
Reaches altitude 10° 21:52:49 10° 297° (WNW) 3,967 10.8 -53.0°
Enters shadow 21:54:26 17° 295° (WNW) 3,571 10.5 -53.3°
Exits shadow 22:17:10 24° 135° (SE) 4,833 10.9 -57.4°
Drops below altitude 10° 22:22:59 10° 132° (SE) 6,126 11.5 -58.4°
Sets 22:28:06 0° 130° (SE) 7,230 12.0 -59.2°
